When you browse on this site, cookies collect data to enhance your experience and personalize the content and advertising you see.
Visit our Privacy Policy to learn more. By continuing to use the site, you agree to this use of cookies and data.
  • In Lithuania
  • List of Countries
  • For 7 days
  • Water Temperature
  • Weather Map
  • Weather Widgets
  • user-avatar
    Login

    Hourly Weather Palmyra

    Today, 31 March, Tuesday

    Time Temperature Precipitation Wind Pressure Humidity
    00:00 +16°C° 0 mm 2 mps 723 mmHg 55%
    01:00 +15°C° 0 mm 2 mps 723 mmHg 56%
    02:00 +15°C° 0 mm 2 mps 723 mmHg 58%
    03:00 +15°C° 0 mm 1 mps 722 mmHg 58%
    04:00 +15°C° 0 mm 2 mps 722 mmHg 57%
    05:00 +15°C° 0 mm 2 mps 722 mmHg 57%
    06:00 +15°C° 0 mm 2 mps 722 mmHg 57%
    07:00 +16°C° 0 mm 2 mps 723 mmHg 54%
    08:00 +16°C° 0 mm 2 mps 723 mmHg 51%
    09:00 +17°C° 0 mm 2 mps 723 mmHg 48%
    10:00 +18°C° 0 mm 2 mps 723 mmHg 45%
    11:00 +19°C° 0 mm 2 mps 723 mmHg 42%
    12:00 +21°C° 0 mm 2 mps 722 mmHg 39%
    13:00 +22°C° 0 mm 3 mps 722 mmHg 35%
    14:00 +23°C° 0 mm 4 mps 721 mmHg 31%
    15:00 +25°C° 0 mm 5 mps 721 mmHg 27%
    16:00 +25°C° 0 mm 5 mps 720 mmHg 29%
    17:00 +23°C° 0 mm 5 mps 720 mmHg 31%
    18:00 +23°C° 0 mm 5 mps 719 mmHg 32%
    19:00 +22°C° 0 mm 6 mps 719 mmHg 36%
    20:00 +21°C° 0 mm 6 mps 719 mmHg 41%
    21:00 +18°C° 0 mm 7 mps 719 mmHg 45%
    22:00 +19°C° 0 mm 6 mps 719 mmHg 45%
    23:00 +19°C° 0 mm 6 mps 719 mmHg 46%

    Tomorrow, 1 April, Wednesday

    Time Temperature Precipitation Wind Pressure Humidity
    00:00 +19°C° 0 mm 6 mps 719 mmHg 47%
    01:00 +17°C° 0 mm 5 mps 718 mmHg 48%
    02:00 +18°C° 0 mm 4 mps 718 mmHg 50%
    03:00 +17°C° 0 mm 4 mps 717 mmHg 51%
    04:00 +15°C° 0.1 mm 4 mps 718 mmHg 56%
    05:00 +16°C° 0.1 mm 3 mps 718 mmHg 60%
    06:00 +14°C° 0.1 mm 3 mps 718 mmHg 64%
    07:00 +15°C° 0 mm 5 mps 718 mmHg 59%
    08:00 +16°C° 0 mm 7 mps 718 mmHg 55%
    09:00 +16°C° 0 mm 9 mps 718 mmHg 51%
    10:00 +17°C° 0 mm 8 mps 718 mmHg 47%
    11:00 +18°C° 0 mm 8 mps 718 mmHg 43%
    12:00 +20°C° 0 mm 7 mps 718 mmHg 39%
    13:00 +21°C° 0 mm 7 mps 718 mmHg 37%
    14:00 +22°C° 0 mm 7 mps 718 mmHg 35%
    15:00 +22°C° 0 mm 6 mps 718 mmHg 33%
    16:00 +21°C° 0 mm 7 mps 718 mmHg 36%
    17:00 +21°C° 0 mm 7 mps 718 mmHg 40%
    18:00 +20°C° 0 mm 7 mps 718 mmHg 44%
    19:00 +18°C° 0 mm 7 mps 719 mmHg 48%
    20:00 +17°C° 0 mm 7 mps 719 mmHg 52%
    21:00 +16°C° 0 mm 7 mps 720 mmHg 56%
    22:00 +15°C° 0 mm 6 mps 720 mmHg 58%
    23:00 +15°C° 0 mm 5 mps 720 mmHg 61%

    Day after tomorrow, 2 April, Thursday

    Time Temperature Precipitation Wind Pressure Humidity
    00:00 +14°C° 0 mm 5 mps 721 mmHg 63%
    01:00 +14°C° 0 mm 4 mps 721 mmHg 66%
    02:00 +13°C° 0 mm 4 mps 721 mmHg 70%
    03:00 +13°C° 0 mm 3 mps 721 mmHg 73%
    04:00 +13°C° 0 mm 3 mps 721 mmHg 75%
    05:00 +12°C° 0 mm 3 mps 721 mmHg 78%
    06:00 +13°C° 0 mm 2 mps 721 mmHg 80%
    07:00 +14°C° 0 mm 2 mps 722 mmHg 76%
    08:00 +14°C° 0 mm 2 mps 722 mmHg 72%
    09:00 +15°C° 0 mm 2 mps 723 mmHg 68%
    10:00 +16°C° 0 mm 2 mps 723 mmHg 63%
    11:00 +17°C° 0 mm 2 mps 723 mmHg 57%
    12:00 +18°C° 0 mm 2 mps 723 mmHg 52%
    13:00 +19°C° 0 mm 2 mps 722 mmHg 48%
    14:00 +20°C° 0 mm 2 mps 722 mmHg 44%
    15:00 +21°C° 0 mm 2 mps 721 mmHg 41%
    16:00 +21°C° 0 mm 2 mps 721 mmHg 40%
    17:00 +21°C° 0 mm 2 mps 721 mmHg 39%
    18:00 +21°C° 0 mm 3 mps 721 mmHg 39%
    19:00 +20°C° 0 mm 3 mps 722 mmHg 42%
    20:00 +19°C° 0 mm 3 mps 722 mmHg 45%
    21:00 +18°C° 0 mm 4 mps 723 mmHg 49%
    22:00 +17°C° 0 mm 4 mps 723 mmHg 51%
    23:00 +15°C° 0 mm 4 mps 723 mmHg 53%

    3 April, Friday

    Time Temperature Precipitation Wind Pressure Humidity
    00:00 +14°C° 0 mm 4 mps 723 mmHg 56%
    01:00 +14°C° 0 mm 3 mps 723 mmHg 59%
    02:00 +14°C° 0 mm 3 mps 723 mmHg 62%
    03:00 +13°C° 0 mm 3 mps 723 mmHg 66%
    04:00 +13°C° 0 mm 3 mps 723 mmHg 68%
    05:00 +13°C° 0 mm 2 mps 723 mmHg 70%
    06:00 +13°C° 0 mm 2 mps 723 mmHg 72%
    07:00 +14°C° 0 mm 2 mps 723 mmHg 66%
    08:00 +15°C° 0 mm 2 mps 723 mmHg 61%
    09:00 +16°C° 0 mm 2 mps 724 mmHg 55%
    10:00 +17°C° 0 mm 2 mps 724 mmHg 47%
    11:00 +18°C° 0 mm 3 mps 724 mmHg 40%
    12:00 +19°C° 0 mm 3 mps 724 mmHg 33%
    13:00 +20°C° 0 mm 3 mps 723 mmHg 31%
    14:00 +21°C° 0 mm 3 mps 723 mmHg 30%
    15:00 +22°C° 0 mm 4 mps 723 mmHg 29%
    16:00 +22°C° 0 mm 4 mps 723 mmHg 31%
    17:00 +21°C° 0 mm 5 mps 723 mmHg 32%
    18:00 +21°C° 0 mm 5 mps 723 mmHg 34%
    19:00 +20°C° 0 mm 5 mps 723 mmHg 39%
    20:00 +17°C° 0 mm 5 mps 724 mmHg 44%
    21:00 +17°C° 0 mm 4 mps 724 mmHg 49%
    22:00 +17°C° 0 mm 3 mps 724 mmHg 52%
    23:00 +16°C° 0 mm 3 mps 725 mmHg 54%

    4 April, Saturday

    Time Temperature Precipitation Wind Pressure Humidity
    00:00 +16°C° 0 mm 2 mps 725 mmHg 56%
    01:00 +15°C° 0 mm 1 mps 725 mmHg 59%
    02:00 +15°C° 0 mm 1 mps 725 mmHg 61%
    03:00 +14°C° 0 mm 1 mps 725 mmHg 64%
    04:00 +14°C° 0 mm 1 mps 725 mmHg 64%
    05:00 +14°C° 0 mm 1 mps 725 mmHg 64%
    06:00 +14°C° 0 mm 2 mps 725 mmHg 64%
    07:00 +15°C° 0 mm 2 mps 725 mmHg 59%
    08:00 +16°C° 0 mm 2 mps 726 mmHg 54%
    09:00 +17°C° 0 mm 2 mps 726 mmHg 49%
    10:00 +19°C° 0 mm 2 mps 726 mmHg 44%
    11:00 +20°C° 0 mm 2 mps 726 mmHg 39%
    12:00 +21°C° 0 mm 2 mps 726 mmHg 35%
    13:00 +24°C° 0 mm 3 mps 725 mmHg 31%
    14:00 +25°C° 0 mm 3 mps 725 mmHg 28%
    15:00 +26°C° 0 mm 4 mps 725 mmHg 25%
    16:00 +26°C° 0 mm 3 mps 725 mmHg 25%
    17:00 +26°C° 0 mm 2 mps 725 mmHg 26%
    18:00 +26°C° 0 mm 2 mps 724 mmHg 26%
    19:00 +24°C° 0 mm 3 mps 725 mmHg 31%
    20:00 +22°C° 0 mm 4 mps 725 mmHg 35%
    21:00 +20°C° 0 mm 5 mps 726 mmHg 40%
    22:00 +20°C° 0 mm 4 mps 726 mmHg 42%
    23:00 +19°C° 0 mm 4 mps 726 mmHg 43%

    5 April, Sunday

    Time Temperature Precipitation Wind Pressure Humidity
    00:00 +18°C° 0 mm 3 mps 726 mmHg 45%
    01:00 +18°C° 0 mm 3 mps 726 mmHg 46%
    02:00 +17°C° 0 mm 3 mps 726 mmHg 47%
    03:00 +17°C° 0 mm 2 mps 725 mmHg 48%
    04:00 +17°C° 0 mm 2 mps 725 mmHg 48%
    05:00 +17°C° 0 mm 3 mps 726 mmHg 48%
    06:00 +16°C° 0 mm 3 mps 726 mmHg 48%
    07:00 +17°C° 0 mm 3 mps 726 mmHg 45%
    08:00 +19°C° 0 mm 4 mps 726 mmHg 43%
    09:00 +20°C° 0 mm 4 mps 726 mmHg 40%
    10:00 +22°C° 0 mm 4 mps 726 mmHg 35%
    11:00 +25°C° 0 mm 4 mps 726 mmHg 30%
    12:00 +27°C° 0 mm 4 mps 726 mmHg 25%
    13:00 +27°C° 0 mm 4 mps 725 mmHg 23%
    14:00 +28°C° 0 mm 3 mps 725 mmHg 21%
    15:00 +29°C° 0 mm 3 mps 724 mmHg 19%
    16:00 +29°C° 0 mm 3 mps 724 mmHg 20%
    17:00 +29°C° 0 mm 4 mps 723 mmHg 21%
    18:00 +28°C° 0 mm 5 mps 723 mmHg 22%
    19:00 +27°C° 0 mm 6 mps 723 mmHg 25%
    20:00 +26°C° 0 mm 8 mps 723 mmHg 28%
    21:00 +24°C° 0 mm 10 mps 723 mmHg 30%
    22:00 +23°C° 0 mm 9 mps 723 mmHg 32%
    23:00 +23°C° 0 mm 8 mps 722 mmHg 34%
    Show more